This is the latest recevied weather packets stored in our database for station/object WB4ROX. If no packets are shown the sender has not sent any weather packets the latest 10 day(s).
| Time | Temp. | Humidity | Pressure | Rain* | Wind** | Luminosity | Snow |
|---|---|---|---|---|---|---|---|
| 1777739555 | 5.56° C | 53% | 1014.6 hPa | 0 mm | - | 1040 W/m² | - |
| 1777739252 | 5.56° C | 47% | 1014.6 hPa | 0 mm | - | 353 W/m² | - |
| 1777738949 | 5° C | 52% | 1014.6 hPa | 0 mm | - | 1070 W/m² | - |
| 1777738646 | 5° C | 52% | 1014.8 hPa | 0 mm | - | 395 W/m² | - |
| 1777738342 | 5° C | 52% | 1014.7 hPa | 0 mm | - | 395 W/m² | - |
| 1777738040 | 4.44° C | 53% | 1014.7 hPa | 0 mm | - | 405 W/m² | - |
| 1777737739 | 5° C | 52% | 1014.8 hPa | 0 mm | - | 359 W/m² | - |
| 1777737437 | 5° C | 54% | 1015 hPa | 0 mm | - | 462 W/m² | - |
| 1777737135 | 5° C | 52% | 1015.1 hPa | 0 mm | - | 339 W/m² | - |
| 1777736830 | 5° C | 50% | 1014.7 hPa | 0 mm | - | 385 W/m² | - |
| 1777736212 | 4.44° C | 56% | 1014.6 hPa | 0 mm | - | 522 W/m² | - |
| 1777735908 | 4.44° C | 56% | 1014.8 hPa | 0 mm | - | 488 W/m² | - |
| 1777735606 | 3.89° C | 53% | 1014.5 hPa | 0 mm | - | 751 W/m² | - |
| 1777735303 | 3.89° C | 53% | 1014.6 hPa | 0 mm | - | 357 W/m² | - |
| 1777735001 | 4.44° C | 51% | 1014.7 hPa | 0 mm | - | 444 W/m² | - |
| 1777734697 | 3.89° C | 56% | 1015 hPa | 0 mm | - | 418 W/m² | - |
| 1777734395 | 3.33° C | 59% | 1015 hPa | 0 mm | - | 798 W/m² | - |
| 1777734091 | 3.33° C | 59% | 1015 hPa | 0 mm | - | 518 W/m² | - |
| 1777733788 | 3.33° C | 56% | 1014.8 hPa | 0 mm | - | 270 W/m² | - |
| 1777733485 | 3.89° C | 54% | 1014.8 hPa | 0 mm | - | 212 W/m² | - |
| 1777733180 | 4.44° C | 57% | 1014.8 hPa | 0 mm | - | 299 W/m² | - |
| 1777732878 | 3.89° C | 57% | 1014.7 hPa | 0 mm | - | 314 W/m² | - |
| 1777732574 | 3.89° C | 59% | 1014.3 hPa | 0 mm | - | 668 W/m² | - |
| 1777732272 | 3.33° C | 62% | 1014.3 hPa | 0 mm | - | 331 W/m² | - |
| 1777731969 | 3.33° C | 63% | 1014.5 hPa | 0 mm | - | 251 W/m² | - |
* Rain latest hour (hover to see other rain measurements)
** Current wind speed in m/s (hover to see current wind gust speed)